EZY246Y EGKK-EGPH

Flight info

Callsign EZY246Y
Flight time N/A
Altitude 38000
Route LAM L10 BPK UN601 RIBEL DCT INPIP
Aircraft A320/M-SDE3FGHIRWY/LB1

Departure

Time N/A
Airport London Gatwick Airport (EGKK)

Arrival

Time 2026-04-21 21:38
Airport Edinburgh Airport (EGPH)
Time Latitude Longitude Altitude Speed Heading
2026-04-21 21:13 54.67065 -2.74836 26365 ft 355 kts 336°
2026-04-21 21:14 54.69340 -2.76459 25910 ft 352 kts 335°
2026-04-21 21:14 54.71594 -2.78073 25424 ft 351 kts 336°
2026-04-21 21:14 54.73858 -2.79700 24794 ft 355 kts 338°
2026-04-21 21:14 54.76157 -2.81351 24161 ft 359 kts 338°
2026-04-21 21:15 54.78474 -2.83011 23528 ft 361 kts 338°
2026-04-21 21:15 54.80798 -2.84675 22976 ft 361 kts 338°
2026-04-21 21:15 54.83084 -2.86315 22493 ft 360 kts 338°
2026-04-21 21:15 54.85385 -2.87970 22080 ft 356 kts 338°
2026-04-21 21:16 54.87673 -2.89618 21622 ft 355 kts 338°
2026-04-21 21:16 54.89933 -2.91243 21303 ft 349 kts 338°
2026-04-21 21:16 54.92167 -2.92853 20951 ft 346 kts 338°
2026-04-21 21:16 54.94380 -2.94458 20567 ft 343 kts 338°
2026-04-21 21:17 54.96576 -2.96053 20165 ft 342 kts 338°
2026-04-21 21:17 54.98767 -2.97646 19680 ft 342 kts 338°
2026-04-21 21:17 55.00955 -2.99235 19159 ft 346 kts 338°
2026-04-21 21:17 55.03176 -3.00846 18762 ft 346 kts 338°
2026-04-21 21:18 55.05389 -3.02453 18359 ft 343 kts 338°
2026-04-21 21:18 55.07588 -3.04052 17960 ft 341 kts 339°
2026-04-21 21:18 55.09752 -3.05632 17703 ft 335 kts 339°
2026-04-21 21:18 55.11890 -3.07196 17370 ft 331 kts 339°
2026-04-21 21:19 55.13998 -3.08737 17171 ft 324 kts 339°
2026-04-21 21:19 55.16056 -3.10244 16948 ft 319 kts 339°
2026-04-21 21:19 55.18091 -3.11737 16651 ft 316 kts 339°
2026-04-21 21:19 55.20081 -3.13201 16353 ft 313 kts 339°
2026-04-21 21:20 55.22107 -3.14690 15839 ft 319 kts 339°
2026-04-21 21:20 55.24157 -3.16195 15422 ft 320 kts 339°
2026-04-21 21:20 55.26203 -3.17698 15077 ft 319 kts 339°
2026-04-21 21:20 55.28250 -3.19144 14757 ft 316 kts 345°
2026-04-21 21:21 55.30372 -3.19967 14455 ft 310 kts 358°
2026-04-21 21:21 55.32505 -3.20017 14123 ft 304 kts
2026-04-21 21:21 55.34602 -3.19672 13750 ft 302 kts
2026-04-21 21:21 55.36694 -3.19339 13390 ft 301 kts
2026-04-21 21:22 55.38745 -3.19019 13039 ft 299 kts
2026-04-21 21:22 55.40814 -3.18699 12684 ft 298 kts
2026-04-21 21:22 55.42874 -3.18383 12330 ft 296 kts
2026-04-21 21:22 55.44922 -3.18068 11977 ft 295 kts
2026-04-21 21:23 55.46943 -3.17759 11763 ft 286 kts
2026-04-21 21:23 55.48851 -3.17472 11597 ft 266 kts
2026-04-21 21:23 55.50670 -3.17191 11386 ft 259 kts
2026-04-21 21:23 55.52458 -3.16908 11133 ft 256 kts
2026-04-21 21:24 55.54228 -3.16624 10846 ft 255 kts
2026-04-21 21:24 55.55988 -3.16340 10541 ft 253 kts
2026-04-21 21:24 55.57717 -3.16062 10228 ft 252 kts
2026-04-21 21:24 55.59458 -3.15786 9909 ft 250 kts
2026-04-21 21:25 55.61184 -3.15514 9558 ft 249 kts
2026-04-21 21:25 55.62903 -3.15244 9190 ft 248 kts
2026-04-21 21:25 55.64612 -3.14974 8866 ft 246 kts 10°
2026-04-21 21:25 55.66317 -3.14898 8578 ft 247 kts 353°
2026-04-21 21:26 55.67885 -3.16186 8536 ft 257 kts 322°
2026-04-21 21:26 55.68929 -3.18782 8535 ft 264 kts 290°
2026-04-21 21:26 55.69231 -3.21988 8538 ft 266 kts 272°
2026-04-21 21:26 55.69272 -3.25230 8537 ft 267 kts 270°
2026-04-21 21:27 55.69280 -3.28521 8537 ft 267 kts 270°
2026-04-21 21:27 55.69279 -3.31800 8321 ft 265 kts 270°
2026-04-21 21:27 55.69275 -3.35065 7960 ft 265 kts 270°
2026-04-21 21:27 55.69269 -3.38313 7617 ft 263 kts 270°
2026-04-21 21:28 55.69260 -3.41544 7297 ft 261 kts 269°
2026-04-21 21:28 55.69251 -3.44748 6965 ft 260 kts 270°
2026-04-21 21:28 55.69229 -3.51082 6258 ft 258 kts 270°
2026-04-21 21:29 55.69397 -3.54220 5895 ft 255 kts 291°
2026-04-21 21:29 55.70325 -3.56801 5534 ft 247 kts 321°
2026-04-21 21:29 55.71642 -3.58667 5336 ft 236 kts 328°
2026-04-21 21:29 55.72942 -3.60336 5191 ft 225 kts 329°
2026-04-21 21:30 55.74183 -3.61923 5054 ft 215 kts 329°
2026-04-21 21:30 55.75367 -3.63452 4890 ft 205 kts 329°
2026-04-21 21:30 55.76499 -3.64931 4544 ft 201 kts 329°
2026-04-21 21:30 55.77616 -3.66404 4171 ft 199 kts 329°
2026-04-21 21:31 55.78705 -3.67855 3792 ft 198 kts 329°
2026-04-21 21:31 55.79800 -3.69326 3429 ft 196 kts 329°
2026-04-21 21:31 55.80909 -3.70670 3052 ft 187 kts 348°
2026-04-21 21:31 55.82119 -3.70830 3029 ft 174 kts 17°
2026-04-21 21:32 55.83239 -3.70160 3018 ft 168 kts 36°
2026-04-21 21:32 55.84134 -3.68891 3012 ft 163 kts 53°
2026-04-21 21:32 55.84761 -3.67227 3015 ft 162 kts 61°
2026-04-21 21:32 55.85349 -3.65519 3008 ft 159 kts 60°
2026-04-21 21:33 55.85901 -3.63916 3039 ft 147 kts 61°
2026-04-21 21:33 55.86422 -3.62397 3017 ft 142 kts 61°
2026-04-21 21:33 55.86927 -3.60924 2980 ft 141 kts 62°
2026-04-21 21:33 55.87438 -3.59429 2864 ft 141 kts 61°
2026-04-21 21:34 55.87948 -3.57940 2691 ft 140 kts 61°
2026-04-21 21:34 55.88453 -3.56464 2517 ft 139 kts 61°
2026-04-21 21:34 55.88953 -3.55001 2325 ft 138 kts 61°
2026-04-21 21:34 55.89452 -3.53543 2143 ft 138 kts 61°
2026-04-21 21:35 55.89949 -3.52085 1944 ft 138 kts 61°
2026-04-21 21:35 55.90450 -3.50619 1756 ft 139 kts 60°
2026-04-21 21:35 55.90943 -3.49172 1546 ft 138 kts 60°
2026-04-21 21:35 55.91438 -3.47721 1360 ft 138 kts 60°
2026-04-21 21:36 55.91942 -3.46242 1156 ft 141 kts 59°
2026-04-21 21:36 55.92451 -3.44747 950 ft 142 kts 60°
2026-04-21 21:36 55.92961 -3.43247 758 ft 141 kts 59°
2026-04-21 21:36 55.93469 -3.41756 559 ft 135 kts 59°
2026-04-21 21:37 55.93945 -3.40356 379 ft 129 kts 59°
2026-04-21 21:37 55.94406 -3.38993 192 ft 127 kts 59°
2026-04-21 21:37 55.94842 -3.37711 115 ft 105 kts 59°
2026-04-21 21:37 55.95134 -3.36857 112 ft 60 kts 58°
2026-04-21 21:38 55.95320 -3.36303 110 ft 47 kts 59°
2026-04-21 21:38 55.95464 -3.35881 111 ft 34 kts 59°
2026-04-21 21:38 55.95557 -3.35606 113 ft 17 kts 60°
2026-04-21 21:38 55.95518 -3.35461 113 ft 14 kts 149°
2026-04-21 21:39 55.95507 -3.35450 116 ft 0 kts 149°
2026-04-21 21:39 55.95478 -3.35419 114 ft 10 kts 149°
2026-04-21 21:39 55.95420 -3.35440 112 ft 9 kts 229°
2026-04-21 21:39 55.95389 -3.35527 115 ft 8 kts 239°
2026-04-21 21:40 55.95352 -3.35638 115 ft 13 kts 238°
2026-04-21 21:40 55.95303 -3.35783 115 ft 13 kts 239°
2026-04-21 21:40 55.95257 -3.35920 114 ft 13 kts 238°
2026-04-21 21:40 55.95213 -3.36051 112 ft 12 kts 239°
2026-04-21 21:41 55.95175 -3.36161 113 ft 9 kts 239°
2026-04-21 21:41 55.95145 -3.36251 116 ft 8 kts 239°
2026-04-21 21:41 55.95122 -3.36319 114 ft 0 kts 239°
2026-04-21 21:43 55.95119 -3.36330 113 ft 5 kts 239°
2026-04-21 21:43 55.95080 -3.36395 116 ft 8 kts 192°
2026-04-21 21:43 55.95028 -3.36398 113 ft 7 kts 203°
2026-04-21 21:44 55.94986 -3.36404 116 ft 6 kts 159°
2026-04-21 21:44 55.94952 -3.36369 115 ft 5 kts 149°
2026-04-21 21:44 55.94943 -3.36360 114 ft 0 kts 149°